リニア彗星

C/2000 B2 ( LINEAR )

English version
Home page
Updated on May 3, 2000

---------------------------------------------------------------------

・ プロフィール

発見日 2000年1月29日
発見光度 18.8等
発見者 Lincoln Laboratory Near-Earth Asteroid Research project

・ 軌道要素

   Improved parabolic orbital elements by Kenji Muraoka,
  from 78 observations  2000 Jan. 29 to Mar. 9, m.e. = +/- 0".44.

          T  =  1999 Nov. 9.9345  TT
       Peri. =  154.5683
       Node  =  284.9897   (2000.0)
       Incl. =   93.6545
          q  =    3.776037  AU
          e  =    1.0

・ 星図

・ 光度変化

        m1 = 9.8 + 5 logΔ + 10.0 log r

---------------------------------------------------------------------

軌道要素は村岡健治氏の計算によるものです。
星図は StellaNavigator Ver.2.0 for Windows (アストロアーツ 編著 / アスキー出版局刊) で作成したものです。
光度グラフはComet for Windowsで作成したものです。

---------------------------------------------------------------------

Copyright(C) Seiichi Yoshida (comet@aerith.net). All rights reserved.